Regional Weather Roundup
Issued by NWS

Home | Current Version | Previous Version | Graphics & Text | Print | Product List | Glossary On
Versions: 1 2 3 4 5 6 7 8 9 10 11 12 13 14 15 16 17 18 19 20 21 22 23 24 25 26 27 28 29 30 31 32 33 34 35 36 37 38 39 40 41 42 43 44 45 46 47 48 49 50
000
ASUS43 KFSD 210310
RWRSD

WEATHER ROUNDUP FOR SOUTH DAKOTA
NATIONAL WEATHER SERVICE SIOUX FALLS SD
1000 PM CDT MON APR 20 2015

NOTE: "FAIR" INDICATES FEW OR NO CLOUDS BELOW 12,000 FEET WITH NO
SIGNIFICANT WEATHER AND/OR OBSTRUCTIONS TO VISIBILITY.


SDZ001>005-009-010-012>017-210400-
NORTHWEST AND NORTH CENTRAL SOUTH DAKOTA

CITY           SKY/WX    TMP DP  RH WIND       PRES   REMARKS
BUFFALO          N/A     39  20  46 NW15      29.80S
FAITH            N/A     37  17  44 NW12      29.84R
MOBRIDGE       CLEAR     40  13  33 NW10      29.76R
$$

SDZ012>016-024>037-041>051-057-063-072>074-210400-
SOUTHWEST AND SOUTH CENTRAL SOUTH DAKOTA

CITY           SKY/WX    TMP DP  RH WIND       PRES   REMARKS
RAPID CTY ARPT PTCLDY    37  23  56 N9        29.88R
PIERRE         MOCLDY    45  18  34 NW14      29.79R
CUSTER         CLEAR     35  16  45 W3        29.88R
ELLSWORTH AFB  MOCLDY    43  22  42 N8        29.88R
PHILIP         CLOUDY    47 N/A N/A NW8       29.84R
PINE RIDGE     CLEAR     35  23  61 E5        29.87R
SPEARFISH      CLOUDY    39  21  48 N6        29.91R
WINNER         CLOUDY    47  15  27 NW8       29.81R
$$

SDZ004>011-016>023-039-040-210400-
NORTHEAST SOUTH DAKOTA

CITY           SKY/WX    TMP DP  RH WIND       PRES   REMARKS
ABERDEEN       CLEAR     36  24  62 N7        29.73R
WATERTOWN      CLEAR     38  26  62 NW16      29.69R
BROOKINGS      CLEAR     36  25  64 NW8       29.71R
SISSETON         N/A     38  29  70 N17       29.67R
$$

SDZ017-020-022-023-036>040-048>070-210400-
SOUTHEAST SOUTH DAKOTA

CITY           SKY/WX    TMP DP  RH WIND       PRES   REMARKS
SIOUX FALLS    CLEAR     39  22  50 NW7       29.71R
HURON          CLEAR     36  13  38 NW12      29.74R
CHAMBERLAIN    MOCLDY    40   8  27 NW7       29.79S
MITCHELL       CLEAR     43   7  22 NW12      29.76R
YANKTON        CLEAR     43   9  24 W12       29.76R
$$

ABBREVIATIONS USED IN REMARKS
   TC - TEMPERATURE IN CELSIUS
  WCI - WIND CHILL INDEX
   HX - HEAT INDEX
  VSB - VISIBILITY



USA.gov is the U.S. government's official web portal to all federal, state and local government web resources and services.